Lapse_Rate
4.9 4.5 4.4 4.3 4.5 4.8 5.5 5.7 5.9 6.7 7.0 7.2 6.6 6.4 6.4 6.1 6.1 6.1 6.2 6.1 5.8 5.9 6.2 6.0 6.4 6.5 5.9 5.9 6.0 6.1 6.2 6.1 5.9 5.9 5.8 5.7 5.7 5.8
4.6 4.3 4.2 4.0 4.6 4.7 4.8 4.7 5.2 5.2 6.7 6.8 6.6 6.4 6.5 6.4 6.1 6.0 6.0 5.7 5.7 5.7 5.6 5.6 5.7 5.8 6.1 5.9 5.9 6.1 6.1 6.1 6.0 6.1 5.9 5.7 5.7 5.8
4.9 5.0 5.0 4.7 4.4 4.3 4.6 4.4 4.9 4.7 5.9 6.6 6.2 6.3 6.7 6.7 6.6 6.2 6.2 6.0 5.8 5.4 5.9 5.4 5.7 5.4 5.4 5.7 5.7 5.8 5.9 6.0 6.1 6.1 6.0 5.7 5.5 5.6
4.8 4.3 4.5 4.9 5.4 5.6 5.5 5.5 5.3 4.8 4.9 5.4 5.7 6.0 6.5 6.5 6.3 6.2 6.2 6.4 5.7 5.5 5.4 5.2 5.4 5.2 5.1 5.4 5.7 5.8 5.6 5.7 6.1 6.1 6.1 5.8 5.6 5.6
5.1 5.0 4.8 5.2 5.6 6.0 6.4 6.9 6.2 5.9 5.6 5.6 5.8 6.0 6.2 6.3 6.4 6.2 6.3 6.2 5.9 5.8 5.3 5.8 5.2 5.4 5.3 5.2 5.4 5.6 6.0 5.7 5.7 6.1 6.1 6.0 5.8 5.6
5.6 5.6 5.1 5.1 5.6 5.8 6.3 6.2 6.2 6.0 6.0 5.9 6.0 6.5 6.1 6.2 6.5 6.3 6.3 6.2 6.1 6.1 6.0 5.9 5.4 5.5 5.6 5.4 5.4 5.5 5.7 5.9 5.8 5.8 6.0 6.0 6.0 6.0
6.1 6.1 5.9 5.4 5.2 5.1 5.6 5.8 6.1 5.9 6.3 6.1 6.3 6.1 6.1 6.1 6.2 6.2 6.0 5.7 6.0 6.2 5.7 5.4 5.2 5.6 5.4 5.5 5.6 5.4 5.4 6.0 5.8 5.8 5.9 5.9 5.9 5.8
6.6 6.3 6.2 5.8 5.1 4.6 4.7 5.2 5.4 5.5 5.5 6.2 6.3 6.0 6.1 6.0 6.2 6.1 6.4 6.1 6.0 6.1 6.0 5.6 5.6 5.5 5.6 5.8 6.1 5.2 5.3 4.9 5.2 5.4 5.7 5.9 5.9 6.0
6.5 6.5 6.3 6.1 5.9 5.4 4.9 4.8 4.9 5.1 5.2 5.6 5.5 5.6 6.0 5.6 6.0 6.0 6.2 6.4 6.5 6.4 6.3 6.2 6.3 6.1 6.1 5.7 6.0 5.5 5.4 4.9 5.0 4.8 5.3 5.6 6.1 6.0
6.6 6.6 6.5 6.5 6.2 6.1 5.7 5.3 5.0 4.4 4.9 4.8 5.0 5.0 5.1 5.6 6.2 6.3 6.3 6.1 5.8 6.0 6.0 5.7 5.9 5.7 6.0 6.1 6.3 5.6 5.5 5.4 5.3 4.9 5.4 5.2 5.4 5.7
6.8 6.8 6.6 6.4 6.5 6.4 6.4 5.8 5.8 5.4 5.2 4.9 4.7 4.8 4.8 4.8 4.8 4.8 4.9 5.3 5.3 5.3 5.6 5.6 5.5 5.7 5.5 5.8 5.7 5.4 5.4 5.0 4.8 4.7 5.1 5.2 5.8 5.5
6.7 6.6 6.5 6.5 6.7 6.6 6.4 6.5 6.3 5.8 5.7 5.6 5.5 5.2 5.0 5.0 5.1 4.9 4.7 4.9 5.2 5.4 5.4 5.2 5.1 5.4 5.5 5.2 5.0 4.7 4.4 4.0 3.8 4.4 4.4 5.3 4.9 5.5
6.7 6.6 6.6 6.7 6.6 6.8 6.9 6.9 6.8 6.7 6.5 6.1 5.8 5.7 5.5 5.3 5.3 5.3 5.2 4.9 5.0 4.9 4.7 4.6 4.5 4.6 4.4 4.9 4.5 4.1 4.3 4.5 4.2 3.8 3.7 4.7 5.5 5.2
6.5 6.5 6.4 6.4 6.2 6.4 6.4 6.4 6.6 6.4 6.5 6.2 5.9 6.0 5.8 5.7 5.5 5.5 5.4 5.1 5.3 5.1 5.1 5.0 4.6 4.6 4.6 4.6 4.6 4.3 4.1 4.2 4.2 3.9 4.3 4.4 4.6 4.2
6.3 6.3 6.1 6.0 5.9 5.6 5.5 5.9 5.9 5.9 5.9 5.9 6.0 6.2 6.1 6.0 6.1 5.9 5.7 5.7 5.5 5.2 5.1 5.0 5.1 5.0 4.8 4.8 5.0 4.8 4.5 3.8 3.4 3.3 3.7 4.0 4.0 4.3
6.2 6.1 6.0 6.0 5.9 5.7 5.4 5.3 5.3 5.4 5.7 5.9 5.9 5.8 5.8 5.8 5.8 5.8 5.9 5.8 5.8 5.5 5.3 5.0 5.0 5.1 4.9 4.8 4.7 4.9 4.9 4.5 4.3 4.2 4.1 4.1 4.0 4.2
6.2 6.1 6.0 5.7 5.6 5.7 5.5 5.4 5.2 5.1 5.0 5.1 5.1 5.2 5.2 5.2 5.2 5.3 5.3 5.7 5.8 5.7 5.5 5.4 5.3 5.2 5.0 4.9 4.8 4.6 4.4 4.4 4.4 4.4 4.0 3.8 4.1 4.4
6.0 5.9 5.9 5.8 5.6 5.5 5.6 5.7 5.5 5.2 5.0 4.9 4.9 5.0 5.0 5.0 5.0 4.9 4.9 5.0 5.1 5.1 5.1 5.2 5.0 5.1 5.5 5.3 5.3 4.8 4.6 4.4 4.3 4.1 4.2 4.0 3.6 3.7
5.9 5.7 5.6 5.5 5.4 5.3 5.2 5.2 5.4 5.5 5.3 5.1 4.9 4.6 4.5 4.7 4.7 4.7 4.6 4.5 4.5 4.6 4.6 4.6 4.6 4.6 4.5 4.5 4.8 5.2 5.2 5.2 5.2 4.8 5.1 5.1 4.9 3.9
5.6 5.4 5.3 5.2 5.1 5.1 4.9 4.7 4.7 4.8 4.7 4.8 4.7 4.5 4.4 4.4 4.3 4.1 4.1 4.1 4.1 4.0 4.0 4.1 4.2 4.3 4.4 4.4 4.3 4.0 4.4 4.6 4.8 5.0 5.0 5.0 5.2 5.3
5.3 5.2 5.2 5.0 4.8 4.6 4.6 4.6 4.5 4.4 4.1 4.0 4.0 4.0 4.0 3.9 3.8 3.7 3.7 3.7 3.7 3.6 3.6 3.5 3.6 3.6 3.7 3.9 4.1 3.9 3.8 4.0 4.3 4.5 4.3 4.5 4.6 4.7
5.2 5.1 4.8 4.5 4.4 4.3 4.2 4.1 4.0 3.9 3.8 3.6 3.4 3.3 3.3 3.2 3.2 3.2 3.3 3.3 3.3 3.4 3.3 3.3 3.2 3.1 3.2 3.4 3.6 3.6 3.4 3.1 3.1 3.4 3.7 3.6 3.5 3.6
4.7 4.5 4.4 4.3 4.1 4.0 3.8 3.6 3.5 3.4 3.4 3.2 3.2 3.1 3.0 2.8 2.7 2.7 2.7 2.6 2.6 2.6 2.7 2.7 2.7 2.7 2.8 2.9 3.0 3.0 3.1 3.2 3.3 3.1 2.6 2.9 3.1 3.0
Wind_Speed
11 12 10 8 8 8 8 8 9 11 10 9 6 7 7 7 9 7 9 14 19 20 20 22 23 27 32 33 34 34 35 36 36 36 36 35 35 34
10 14 13 11 11 8 8 8 8 10 12 8 7 4 4 4 5 7 8 12 18 20 19 18 18 19 25 31 33 33 34 34 35 35 35 35 35 35
13 14 16 16 11 10 9 8 8 8 10 10 7 5 5 9 7 5 4 6 7 11 3 7 14 16 19 22 26 31 33 33 34 35 34 35 35 35
14 15 16 13 16 14 11 13 9 8 7 11 6 6 8 7 8 11 8 9 9 20 23 6 11 19 19 18 22 26 30 32 32 33 33 34 35 35
13 14 15 16 17 14 15 13 11 8 8 5 5 6 4 8 4 6 10 8 8 19 18 21 26 20 12 2 10 19 28 29 32 33 33 32 32 32
14 14 15 16 17 18 15 16 13 10 10 8 8 6 6 6 6 5 7 9 9 9 15 17 19 25 28 23 20 16 17 29 32 33 32 32 33 32
14 15 16 22 26 23 12 15 16 11 9 11 10 10 8 7 8 5 2 6 10 9 9 10 11 11 12 25 25 28 27 16 20 18 17 17 17 19
13 14 14 22 20 24 26 28 24 16 14 12 12 13 13 7 8 6 6 3 3 8 6 10 8 10 9 15 29 29 25 26 24 9 18 18 18 17
11 12 13 12 17 13 19 22 23 30 21 14 13 13 14 13 8 8 9 9 5 6 2 8 8 10 8 17 30 28 28 25 24 22 16 18 17 17
12 12 14 15 18 16 13 13 14 14 16 12 13 12 13 13 11 8 7 6 7 11 8 5 6 7 8 14 27 28 29 31 29 28 21 18 19 20
12 13 13 15 25 25 15 15 15 15 21 28 28 30 30 34 26 9 11 6 7 7 10 3 5 3 5 9 16 25 25 25 27 25 24 19 18 14
7 10 24 20 26 26 14 13 13 13 13 15 15 19 25 25 31 15 11 10 5 5 10 3 6 4 3 5 8 12 11 21 25 27 25 20 22 5
5 6 8 24 25 26 23 14 14 10 12 11 11 11 12 13 12 16 14 10 9 7 10 5 6 5 3 2 3 5 8 12 14 15 21 25 29 16
5 4 8 21 22 24 17 23 21 12 8 9 9 11 11 11 11 10 18 15 14 8 15 13 3 4 3 2 2 6 5 10 10 7 9 19 18 14
7 11 16 17 17 12 23 20 13 9 9 9 10 9 8 8 13 11 18 16 16 18 22 22 9 8 7 6 3 6 5 4 7 6 6 7 6 5
8 8 9 9 8 7 7 9 7 7 8 7 7 6 6 8 10 9 8 9 8 9 19 23 19 10 5 2 5 6 6 4 7 8 7 4 5 8
4 6 6 5 7 7 7 6 5 5 6 6 7 8 8 8 9 9 9 7 8 10 10 10 20 17 7 7 6 9 7 7 8 8 7 6 3 4
6 4 5 5 7 7 7 8 8 6 6 6 6 7 7 8 9 8 9 9 8 9 9 9 10 9 7 8 12 9 8 8 8 9 9 7 5 5
6 4 4 5 6 7 7 7 7 7 6 5 6 5 6 7 8 8 9 9 8 8 8 9 10 9 9 8 4 17 9 8 9 8 8 7 8 8
5 5 5 5 6 6 6 6 6 7 6 5 5 5 4 6 6 7 8 7 7 7 7 8 8 9 8 8 7 6 17 9 8 9 8 9 8 15
5 5 4 5 5 4 3 4 3 5 6 4 5 5 4 5 5 6 6 7 8 8 8 8 8 16 7 8 5 8 6 18 17 10 10 8 6 4
2 3 4 4 3 3 2 3 3 5 5 5 3 2 3 3 3 4 5 6 7 7 7 7 9 8 7 9 8 11 10 10 20 21 18 12 4 4
2 2 2 3 3 2 4 4 4 3 4 4 4 3 3 3 4 4 4 5 6 6 7 7 7 7 8 8 9 8 14 12 9 11 11 19 20 21
Wind_Direction
1 349 353 343 334 319 309 299 281 270 266 264 254 239 241 220 212 206 221 204 213 209 205 208 216 209 205 204 204 205 207 207 206 205 205 207 208 209
11 1 358 355 348 335 318 300 282 283 260 262 271 283 327 302 264 238 224 208 208 216 209 205 214 226 217 206 205 203 205 206 205 205 205 205 207 210
11 10 2 359 357 347 335 321 308 302 277 259 252 356 31 7 13 49 44 68 55 33 181 213 226 232 237 225 218 205 203 204 204 205 204 206 208 210
1 8 9 3 7 357 352 346 326 322 313 242 37 13 43 344 13 48 53 59 46 32 29 358 210 215 243 244 231 216 211 204 203 203 201 204 208 209
3 4 11 11 12 359 9 357 348 351 346 39 56 9 14 20 352 36 43 48 52 42 43 46 51 55 66 16 279 258 224 211 202 200 199 199 202 204
12 11 16 17 20 10 10 7 357 4 11 47 53 28 26 354 2 14 49 44 36 27 39 36 42 43 35 32 37 11 261 228 214 204 202 200 197 199
16 14 16 25 26 24 16 16 16 13 12 34 42 38 26 17 1 342 13 93 56 21 40 31 31 32 28 24 23 30 18 247 210 204 200 198 201 202
19 17 17 19 18 22 26 25 29 22 28 34 35 31 19 12 2 10 11 7 52 9 23 37 32 43 29 35 29 32 43 38 36 83 124 126 130 136
23 23 22 20 20 16 20 26 24 29 29 28 29 27 18 8 342 15 51 58 60 358 9 48 29 41 23 33 44 37 38 41 51 39 55 81 95 102
19 34 26 23 25 21 20 28 27 25 27 29 32 27 28 18 15 20 30 76 62 36 15 61 0 45 25 25 32 40 41 40 34 40 27 63 77 79
19 19 39 29 30 28 25 27 25 21 18 30 33 33 31 33 31 31 33 28 45 32 22 43 354 337 57 25 23 26 32 43 37 26 40 17 61 73
13 23 31 37 33 35 31 28 28 13 10 14 18 21 22 24 28 31 28 35 33 36 5 39 357 355 15 22 20 17 31 42 38 28 19 16 34 340
17 26 32 34 38 37 38 36 33 13 17 24 24 23 21 22 21 21 29 40 42 43 355 6 4 7 31 4 359 2 28 31 25 21 13 8 24 20
15 21 37 42 38 43 41 39 34 25 27 29 29 27 22 17 14 15 18 33 40 38 14 21 1 349 341 360 8 360 61 41 20 3 357 14 16 5
44 59 51 42 38 27 40 37 31 30 32 33 26 20 12 9 13 16 19 24 31 33 24 26 24 11 46 35 33 10 8 12 7 354 350 4 357 15
29 33 25 27 30 18 11 22 25 27 30 29 22 11 13 20 24 17 16 11 23 19 19 22 16 13 14 33 42 25 12 2 348 346 336 331 331 14
30 34 25 17 26 19 18 18 15 16 27 19 21 22 22 22 24 19 20 15 28 14 9 12 12 9 360 30 34 20 1 1 358 352 344 338 335 357
47 31 20 15 29 21 19 15 16 19 19 25 22 25 24 24 20 19 17 18 19 15 10 8 9 11 10 6 14 14 360 353 350 345 350 341 347 341
53 33 30 19 25 22 19 15 9 3 22 27 27 17 23 28 23 22 17 13 14 12 7 7 9 7 5 359 320 3 343 348 341 341 340 335 319 316
45 41 29 26 28 30 18 13 2 360 6 21 27 21 5 32 27 24 16 11 5 5 5 8 8 1 353 340 319 322 341 339 338 329 325 318 301 298
36 34 27 22 25 26 2 354 341 356 357 9 18 20 4 24 24 17 7 2 3 4 0 358 354 345 337 328 333 327 330 334 331 314 315 311 304 307
16 32 14 8 2 10 354 353 359 357 355 357 14 6 349 7 5 4 9 6 1 354 348 344 344 346 352 350 338 324 325 325 326 326 320 305 314 301
39 7 352 341 344 356 7 2 358 332 343 344 11 355 0 4 358 6 7 0 355 350 348 344 343 347 345 337 332 324 322 324 327 330 321 317 304 294